Temp
17 17 17 17 17 17 17 17 17 17 18 18 18 17 17 17 18 17 16 16 16 15 15 15 15 15 16 16 16 16 16 16 16 16 16 16 16 16 16 16 16 16 16 14 13 14 15 15 15 15 15 16 15 15 15 15 15 15 16 16 16 16 16 15 15 15 15 16 16 15 15 15 15 15 16 16 16 16 16 16 16 16 16 16 16 16 16
16 17 17 16 16 16 16 16 16 16 17 17 17 16 15 16 16 15 15 15 15 14 14 14 14 14 14 15 14 15 15 15 16 16 16 15 15 15 16 16 16 16 16 13 12 14 15 15 15 16 16 16 16 15 15 15 15 15 15 16 16 16 16 16 15 15 15 15 15 15 15 16 16 16 16 16 15 15 15 15 15 15 15 15 15 15 15
16 17 17 16 16 16 16 15 14 15 16 16 16 15 15 15 14 13 14 15 14 14 14 14 14 14 13 13 13 13 13 13 14 15 15 15 16 16 16 15 15 15 15 13 12 13 15 15 15 16 16 16 16 16 16 16 16 15 15 16 16 16 16 15 15 15 15 15 15 15 16 16 16 16 16 16 16 16 16 16 15 15 15 15 15 15 15
15 16 16 16 16 16 16 15 14 14 15 14 14 13 13 14 14 13 14 14 13 13 13 13 13 13 13 12 12 13 13 12 12 13 13 14 14 15 16 15 14 14 14 13 12 12 14 15 16 16 16 16 16 16 16 16 16 16 16 16 16 16 16 16 16 16 16 16 16 16 16 16 16 16 16 16 16 16 16 16 16 16 16 16 16 16 15
15 15 15 16 16 16 15 14 13 13 14 13 12 11 11 12 13 13 14 13 12 12 12 12 12 12 12 12 12 12 12 12 12 12 12 12 12 13 14 14 14 13 11 11 11 12 14 15 15 16 15 15 16 16 16 16 16 16 16 16 16 16 16 16 16 16 16 16 16 16 16 16 16 16 16 16 16 16 16 16 16 16 16 16 16 15 15
14 14 15 16 15 14 13 12 12 12 12 12 11 10 10 10 11 12 12 11 11 11 11 12 12 11 12 12 12 12 12 12 12 12 12 11 11 11 11 12 12 11 10 11 11 12 13 14 15 15 15 15 16 16 16 16 16 16 16 16 16 16 16 16 16 16 16 16 16 16 16 16 16 16 16 16 16 15 16 16 16 16 16 15 15 15 15
14 13 15 14 13 13 12 11 11 11 11 11 10 9 9 10 10 11 11 10 11 11 11 11 11 11 11 11 11 11 11 11 12 12 12 12 11 11 12 12 11 10 11 12 13 12 13 14 15 15 15 15 15 15 15 16 15 16 16 16 16 16 16 16 16 16 16 16 16 15 15 15 16 16 16 16 15 15 15 15 15 15 15 15 15 15 15
13 13 14 13 12 12 11 11 11 11 11 11 11 10 10 9 10 10 10 10 11 11 10 11 11 11 11 11 11 11 11 11 11 12 12 12 11 11 11 11 11 10 11 12 13 14 14 14 14 14 15 15 15 15 15 15 15 15 15 15 15 15 15 16 16 16 16 16 15 15 15 15 15 15 15 15 15 15 15 15 15 15 15 15 15 15 15
13 13 13 12 12 11 11 10 11 11 11 11 12 10 9 9 10 10 10 10 10 11 11 11 10 11 11 11 11 11 11 11 11 11 11 12 11 11 11 12 12 13 13 13 13 14 14 14 14 14 14 14 15 15 15 15 15 15 15 15 15 15 15 15 16 16 16 16 15 15 15 15 15 15 15 15 15 15 15 15 15 15 15 15 15 15 15
13 13 12 12 11 11 10 9 10 10 10 10 11 11 10 10 10 9 10 10 10 11 11 11 10 11 11 11 10 10 11 11 11 11 11 11 12 12 12 13 13 13 14 13 13 13 13 13 13 14 14 14 14 14 14 14 14 14 15 15 15 15 15 15 15 15 15 15 15 15 15 15 15 15 15 15 15 14 14 14 14 14 14 14 14 14 14
13 13 12 12 11 10 9 9 10 10 9 9 11 11 9 9 10 9 10 10 10 10 11 10 10 11 10 9 9 10 10 10 10 10 10 10 11 12 12 13 13 13 13 13 13 13 12 13 13 13 13 14 14 14 14 14 14 14 14 14 14 14 14 14 15 15 15 15 15 15 15 15 15 15 14 14 14 14 14 14 14 14 14 14 14 14 14
12 12 12 10 9 8 8 9 9 10 10 11 12 10 9 9 10 9 9 9 9 9 9 10 10 10 9 9 9 10 9 9 9 9 9 9 10 10 11 11 12 12 12 12 13 13 13 14 14 14 14 14 13 14 14 14 14 14 14 14 14 14 14 14 14 14 14 14 14 15 15 14 14 14 14 14 14 14 14 14 13 13 13 13 13 13 13
11 12 10 8 8 8 9 9 9 10 11 11 10 9 9 9 9 8 8 9 8 9 9 9 9 9 9 9 9 9 8 9 8 8 9 9 9 10 10 10 11 11 11 11 11 12 12 13 13 14 14 14 14 14 14 14 14 14 14 14 14 14 14 14 14 14 14 14 14 14 14 14 14 14 14 14 14 14 13 13 13 13 13 13 12 12 12
10 10 9 7 7 8 9 9 10 10 10 9 9 9 9 9 8 8 8 8 8 8 8 8 8 9 8 8 8 8 8 8 8 7 8 9 9 10 10 10 10 10 10 10 10 10 11 11 12 12 13 13 13 13 13 13 14 14 14 14 14 14 14 14 14 14 14 14 14 14 14 14 14 14 14 14 14 13 13 13 13 13 12 12 11 11 11
9 9 8 7 7 8 9 9 9 9 8 8 8 9 8 8 8 8 8 8 8 8 8 8 8 8 8 8 8 8 8 8 7 7 7 8 8 9 9 10 10 9 9 10 10 10 10 10 10 11 11 12 13 13 13 13 14 14 14 14 14 14 14 14 14 14 14 14 14 14 14 14 13 13 13 13 13 13 13 13 12 12 11 11 11 11 10
9 7 7 7 7 8 9 8 7 7 8 8 8 8 8 8 8 8 8 8 8 7 8 8 8 8 8 8 8 7 8 8 7 6 7 8 8 8 9 9 9 9 9 9 9 9 9 10 10 10 11 11 11 12 13 13 13 13 13 13 13 13 13 14 14 14 13 13 13 13 13 13 13 13 13 13 13 13 13 12 12 12 11 11 10 10 10
7 7 7 7 8 8 8 8 7 7 8 8 8 8 8 8 8 8 8 8 8 7 7 7 8 7 7 7 7 7 7 7 6 6 7 8 8 8 8 9 9 9 9 9 9 9 9 9 9 10 10 10 10 11 11 12 12 12 12 12 12 12 13 13 13 13 13 13 13 13 13 13 13 13 13 13 13 12 12 12 12 11 10 10 10 10 10
7 7 7 7 7 7 7 7 7 7 8 8 8 8 8 8 8 8 8 7 7 7 7 7 7 7 7 7 7 7 7 7 6 6 6 7 8 8 8 8 8 8 8 8 8 8 8 9 9 9 9 10 10 10 11 11 11 11 11 12 12 12 12 12 12 12 13 13 13 13 13 13 13 13 13 13 12 12 12 12 11 11 10 10 9 9 9
8 7 6 7 7 6 6 7 7 7 7 7 7 7 7 7 7 7 7 6 6 6 6 6 6 6 6 6 6 6 7 6 6 5 6 6 7 7 7 8 8 8 8 8 8 8 8 8 8 8 8 9 9 10 10 10 10 10 11 11 11 11 11 11 12 12 12 12 12 13 12 12 12 12 12 12 12 12 11 11 10 10 9 9 9 9 9
8 7 6 6 7 6 6 6 6 6 6 6 6 6 6 6 5 5 5 5 5 5 5 5 5 5 5 5 5 5 5 5 5 5 5 6 6 7 7 7 7 7 7 7 7 7 7 7 8 8 8 8 9 9 9 10 10 10 10 10 10 11 11 11 11 11 11 12 12 12 12 12 12 12 12 12 12 12 11 11 10 9 9 9 9 9 9
7 6 6 7 7 6 6 6 6 6 5 5 5 5 5 5 4 4 4 4 4 4 4 4 4 3 3 3 3 3 4 4 4 4 5 5 5 5 5 5 6 6 6 6 6 6 6 7 7 7 7 8 8 8 8 9 9 9 9 10 10 10 10 10 11 11 11 11 11 11 11 11 11 11 11 11 11 11 11 11 10 10 10 10 9 9 9
6 5 6 7 7 7 6 6 6 5 5 5 5 5 4 4 3 3 3 3 3 3 3 2 2 2 2 2 2 2 2 2 2 3 3 3 3 3 3 4 4 4 5 5 5 6 6 6 7 7 7 7 7 7 8 8 7 7 8 8 9 9 9 10 10 10 10 11 10 10 10 10 10 10 10 10 10 10 10 10 10 10 10 10 9 9 9
6 6 6 6 6 6 6 6 5 5 5 5 4 4 4 3 3 3 3 2 2 2 2 2 2 1 1 1 1 1 1 1 1 2 2 2 1 1 2 2 3 3 4 4 4 5 5 5 5 6 6 6 7 7 7 7 7 7 7 7 7 8 8 9 9 10 10 10 10 10 9 9 10 9 9 8 8 9 9 9 9 9 9 9 9 9 8
6 6 6 6 6 5 5 5 5 4 4 4 4 3 3 3 2 2 2 2 2 1 1 2 2 1 1 1 1 1 1 1 1 1 1 1 1 1 1 2 2 2 2 2 3 3 3 3 3 4 4 5 5 6 6 6 7 6 6 6 6 6 7 8 8 9 9 10 10 9 9 9 9 8 8 7 7 7 8 8 8 8 8 8 8 8 8
6 6 6 6 6 5 5 5 4 3 3 3 3 3 3 3 2 2 2 2 2 1 1 1 1 1 1 1 1 1 1 1 1 0 0 0 0 0 0 0 0 1 1 1 1 1 1 2 2 2 3 3 4 4 5 5 5 6 6 6 6 6 6 7 7 8 9 9 9 9 9 9 8 7 7 7 7 6 6 7 7 7 7 7 7 7 7
6 6 6 6 5 5 5 4 3 3 3 3 3 3 3 3 3 2 2 2 2 1 1 1 1 1 0 0 0 0 0 0 0 -0 -0 -0 -0 -0 -0 -0 -0 -0 -0 -0 -0 0 0 1 1 1 2 2 3 3 4 4 4 4 5 5 5 5 5 6 6 7 7 8 8 9 9 9 8 7 7 8 8 7 6 5 5 6 6 6 6 7 6
6 6 6 5 5 4 4 4 3 3 3 3 3 3 3 3 2 2 2 2 2 1 1 0 0 -0 -0 -0 -0 -0 -0 -0 -0 -0 -0 -0 -0 -0 -0 -0 -0 -0 -0 -0 -0 -0 0 0 1 1 1 2 2 3 3 3 3 3 4 4 4 5 5 5 6 6 7 7 8 8 9 8 8 7 7 7 7 7 6 6 5 4 4 5 5 6 6
6 6 5 5 4 4 3 3 3 3 3 3 3 3 2 2 2 2 1 1 1 1 0 0 -0 -0 -0 -0 -0 -0 -0 -0 -0 -1 -1 -1 -1 -1 -1 -1 -1 -1 -1 -0 -0 -0 0 0 1 1 1 2 2 2 2 3 3 3 3 3 3 4 5 5 5 6 7 7 7 8 8 7 7 6 6 6 6 6 6 6 5 4 3 4 4 5 5
5 5 4 4 4 3 3 3 3 3 3 3 3 2 2 2 2 1 1 0 -0 -0 -0 -0 -0 -0 -1 -1 -1 -1 -1 -1 -1 -1 -1 -1 -1 -1 -1 -1 -1 -0 -0 -0 -0 0 0 0 0 1 1 2 2 2 2 2 2 2 2 3 3 3 4 4 5 6 6 7 7 7 7 6 6 5 4 4 4 4 4 4 4 3 3 3 4 4 4
5 5 4 4 3 2 3 3 3 3 3 2 2 2 2 1 1 1 1 -0 -1 -1 -0 -0 -0 -1 -1 -1 -1 -1 -1 -1 -1 -1 -1 -1 -1 -1 -1 -1 -1 -0 -0 -0 -0 -0 -0 0 0 1 1 1 1 1 1 2 2 2 2 2 3 3 3 4 5 5 6 6 6 5 5 5 4 4 3 3 3 3 3 3 3 3 3 3 4 4 3
5 4 4 4 3 3 3 3 2 2 2 1 1 1 1 1 1 1 1 -0 -1 -1 -0 -0 -0 -1 -1 -1 -1 -1 -1 -1 -2 -2 -2 -2 -1 -1 -1 -1 -1 -1 -1 -1 -1 -1 -0 -0 0 1 1 1 1 1 1 1 1 1 2 2 2 3 3 4 4 5 5 5 4 4 4 4 3 3 3 3 2 2 3 3 3 3 4 4 5 5 4
5 4 4 4 4 3 3 3 2 2 2 1 1 2 1 1 1 1 1 0 -0 -0 -0 -1 -1 -1 -1 -1 -1 -1 -1 -1 -1 -2 -2 -1 -1 -1 -1 -1 -1 -1 -1 -1 -1 -1 -0 0 1 1 1 1 1 1 1 1 1 1 1 2 2 3 3 4 4 4 5 4 3 3 3 3 3 3 2 2 2 2 3 3 3 3 4 5 5 5 5
4 4 3 4 3 3 3 3 3 3 2 2 1 1 1 1 1 0 1 1 1 0 -0 -0 -1 -1 -1 -1 -1 -1 -1 -1 -1 -2 -2 -2 -1 -1 -1 -1 -1 -1 -1 -1 -0 0 1 1 2 2 1 1 1 1 1 2 2 2 1 2 2 3 3 3 4 4 4 3 3 3 2 2 2 2 2 2 2 2 3 3 3 4 4 5 5 5 5
4 4 4 3 3 3 3 3 3 3 3 2 1 1 1 1 1 1 1 1 1 1 0 0 -0 -1 -1 -1 -1 -1 -1 -1 -2 -2 -2 -2 -2 -1 -1 -1 -1 -1 -0 0 1 1 1 2 2 2 2 2 1 1 1 2 2 2 2 2 2 2 2 3 3 3 3 2 2 2 2 2 2 2 2 2 2 2 3 4 4 5 5 5 5 5 5
4 3 3 3 3 3 3 3 3 3 3 2 2 1 1 1 1 1 2 2 1 1 1 1 0 -0 -1 -1 -1 -2 -2 -2 -2 -2 -2 -2 -2 -2 -2 -1 -1 0 1 1 1 1 1 2 2 2 3 2 2 1 1 1 1 1 1 2 2 1 1 2 2 2 2 2 2 2 2 2 2 2 2 2 3 4 4 5 5 5 5 5 5 5 5
4 3 2 3 4 4 3 3 3 3 3 2 2 2 2 2 2 2 2 2 2 2 2 2 1 0 -0 -1 -1 -2 -2 -2 -2 -2 -2 -2 -2 -2 -2 -2 -1 -1 -0 0 1 1 1 2 2 3 3 3 2 2 1 1 1 1 1 1 1 1 1 1 1 2 2 2 2 2 2 3 3 3 3 3 4 5 5 5 5 5 5 5 5 5 5
4 4 3 3 4 4 4 4 4 4 3 3 2 2 3 3 3 3 3 3 3 2 2 2 2 1 0 -0 -1 -1 -2 -2 -2 -2 -2 -2 -2 -2 -2 -2 -2 -2 -2 -1 -0 1 1 2 3 3 3 3 3 3 2 2 2 2 1 1 1 1 1 1 1 2 2 2 2 3 3 3 4 4 4 5 5 5 5 5 5 5 5 4 4 4 4
4 5 4 4 4 4 4 4 4 4 4 4 4 4 4 4 4 3 3 3 3 3 3 2 2 2 1 -0 -1 -1 -1 -1 -2 -2 -2 -2 -2 -2 -2 -2 -2 -2 -2 -2 -1 0 1 2 3 3 3 3 3 3 3 3 3 3 2 2 2 2 2 2 2 2 3 3 3 3 3 4 4 4 4 5 5 5 5 4 4 4 4 3 3 3 4
3 4 5 5 4 4 4 4 4 4 4 4 4 5 5 4 4 4 3 3 3 3 3 3 2 2 1 0 -1 -1 -2 -2 -2 -2 -2 -2 -2 -2 -2 -2 -2 -2 -2 -1 -0 1 1 2 3 3 3 3 3 3 3 3 3 3 3 3 2 2 2 2 2 2 3 3 3 3 3 3 4 4 4 4 4 4 4 4 3 3 3 3 3 3 3
2 4 4 5 4 5 5 4 4 5 5 4 5 5 5 5 4 4 3 3 3 3 3 3 2 1 1 0 -1 -2 -2 -1 -1 -2 -2 -2 -2 -2 -2 -2 -1 -1 -1 -0 1 1 2 2 2 3 3 3 3 3 4 4 3 3 3 3 3 2 2 2 2 2 2 3 3 3 3 3 3 3 3 3 3 3 3 3 3 3 2 2 2 2 2
3 4 5 4 4 5 5 4 4 5 5 5 5 5 5 5 4 4 4 3 3 3 3 3 2 1 1 0 -1 -1 -1 -1 -2 -2 -2 -2 -2 -2 -2 -2 -2 -1 -0 0 1 1 2 2 2 2 2 3 3 3 4 4 4 3 3 3 3 3 3 3 3 3 3 3 3 2 2 2 2 2 2 2 2 2 2 2 2 2 1 1 1 1 1
3 4 4 4 4 4 4 4 4 4 5 5 5 5 5 5 4 4 4 4 3 3 3 2 2 1 1 0 -0 -1 -1 -1 -2 -2 -2 -2 -2 -2 -2 -2 -1 -0 0 0 1 1 1 1 2 2 2 2 3 3 4 3 3 3 3 3 2 2 2 2 2 2 2 2 2 1 1 1 1 1 1 1 1 1 1 1 1 1 0 0 -0 -0 -0
3 4 4 4 4 4 5 4 4 4 5 5 5 5 5 5 4 4 4 4 4 3 3 2 2 1 1 1 0 -0 -1 -1 -1 -2 -2 -2 -2 -2 -2 -2 -1 -0 0 0 0 0 1 1 1 1 2 2 2 3 3 3 3 2 2 2 1 1 1 1 1 1 1 1 1 0 0 0 0 0 0 -0 -0 -0 -0 -0 -0 -1 -1 -1 -1 -1 -2
4 4 4 4 5 5 4 4 4 4 5 5 5 5 5 5 5 4 4 4 3 3 3 3 2 2 1 1 0 -0 -1 -1 -1 -1 -1 -1 -1 -1 -1 -1 -0 -0 0 0 0 0 0 0 1 1 1 2 2 2 2 2 2 2 2 1 1 1 1 1 1 0 0 0 -0 -0 -0 -0 -1 -1 -1 -1 -2 -2 -2 -2 -2 -2 -2 -2 -2 -2 -2
4 4 4 5 5 5 5 5 5 5 5 5 6 5 5 5 5 4 4 4 3 3 3 3 2 2 1 1 0 -0 -1 -1 -1 -1 -1 -2 -2 -2 -1 -1 -1 -0 -0 -0 -0 -0 -0 -0 0 1 1 1 1 1 1 1 1 1 1 1 1 0 0 -0 -0 -0 -1 -1 -1 -1 -1 -1 -2 -2 -2 -2 -2 -3 -3 -3 -3 -3 -3 -3 -3 -3 -3
4 5 5 5 5 5 5 5 5 6 6 5 5 5 5 5 5 4 4 4 3 3 3 3 3 2 2 1 0 -0 -1 -1 -1 -1 -1 -1 -1 -1 -1 -1 -1 -1 -1 -1 -1 -1 -1 -1 -0 -0 0 0 1 1 1 0 0 -0 -0 -0 -0 -1 -1 -1 -1 -1 -1 -2 -2 -2 -2 -2 -2 -3 -3 -3 -3 -3 -4 -4 -4 -4 -4 -4 -4 -4 -5
4 5 5 5 5 5 5 5 5 5 5 4 4 5 5 5 5 4 4 4 4 3 3 3 2 2 2 1 1 0 -0 -1 -1 -1 -1 -1 -1 -1 -1 -1 -1 -1 -1 -1 -1 -1 -1 -1 -1 -1 -1 -0 -0 -0 -0 -0 -0 -1 -1 -1 -1 -1 -1 -2 -2 -2 -2 -2 -3 -3 -3 -3 -3 -3 -3 -4 -4 -4 -4 -4 -5 -5 -5 -5 -5 -5 -6
5 4 5 6 6 5 5 5 5 5 4 4 4 5 5 5 5 5 4 4 4 3 3 3 2 2 2 2 1 1 1 0 -0 -1 -1 -1 -1 -1 -1 -1 -1 -1 -1 -1 -1 -2 -2 -2 -2 -2 -1 -1 -1 -1 -1 -1 -1 -1 -1 -1 -2 -2 -2 -2 -2 -2 -3 -3 -3 -3 -3 -3 -3 -4 -4 -4 -4 -4 -4 -4 -5 -5 -5 -6 -6 -6 -6
5 5 5 5 5 5 5 4 4 5 5 5 5 6 6 5 5 5 4 4 4 4 3 3 2 2 2 2 1 1 1 1 0 -0 -1 -1 -1 -1 -1 -1 -1 -1 -1 -2 -2 -2 -2 -2 -2 -2 -2 -2 -2 -2 -2 -2 -2 -2 -2 -2 -2 -2 -2 -2 -2 -2 -2 -3 -3 -3 -3 -3 -3 -4 -4 -4 -4 -4 -4 -4 -5 -5 -5 -5 -5 -6 -6
6 5 5 5 5 5 5 4 4 5 5 5 5 6 6 5 5 5 5 5 4 4 3 3 2 2 2 2 1 1 1 1 0 -0 -1 -1 -1 -1 -1 -1 -1 -1 -2 -2 -2 -2 -2 -2 -2 -2 -2 -2 -2 -2 -2 -2 -2 -2 -2 -2 -2 -2 -2 -2 -2 -2 -3 -3 -3 -3 -3 -3 -3 -3 -4 -4 -4 -4 -4 -4 -5 -5 -5 -5 -5 -5 -6
6 5 5 5 5 6 5 5 5 5 6 6 5 5 5 5 5 5 5 5 4 4 3 3 2 2 2 2 1 1 1 1 0 -0 -0 -0 -1 -1 -1 -1 -1 -1 -2 -2 -2 -2 -2 -2 -2 -2 -2 -2 -3 -3 -3 -3 -3 -3 -3 -3 -3 -3 -3 -3 -3 -3 -3 -3 -3 -3 -3 -3 -3 -3 -3 -4 -4 -4 -4 -5 -5 -5 -4 -4 -5 -5 -5
7 6 6 6 6 6 6 6 6 6 6 5 5 5 5 5 5 5 5 5 5 4 4 3 3 2 2 2 2 1 1 1 0 0 -0 -0 -0 -1 -1 -1 -1 -1 -2 -2 -2 -2 -2 -2 -2 -2 -2 -3 -3 -3 -3 -3 -3 -3 -3 -3 -3 -3 -3 -3 -3 -3 -3 -3 -3 -3 -3 -3 -3 -3 -3 -3 -3 -4 -4 -4 -4 -4 -4 -4 -4 -5 -5
Height
770 768 768 769 770 773 775 774 774 773 771 771 773 776 776 775 778 784 785 785 787 790 789 787 784 781 778 778 778 777 777 777 778 779 780 781 782 782 783 784 785 785 786 787 787 788 789 790 791 791 792 793 793 793 794 794 795 796 796 797 798 799 799 800 801 802 804 805 806 807 808 810 811 811 810 810 810 811 811 812 813 813 814 815 815 816 816
771 767 767 770 772 774 777 779 780 777 773 774 776 780 782 780 783 789 790 790 793 793 792 789 787 786 784 783 783 782 782 782 781 781 783 783 784 784 784 784 785 785 786 787 787 788 788 789 790 791 792 793 794 795 795 796 796 797 797 798 798 799 799 800 801 802 803 804 805 806 806 807 808 808 808 809 809 810 810 811 811 812 812 813 813 814 814
774 769 770 773 774 775 778 782 785 780 777 779 780 784 786 785 792 796 791 791 795 794 792 791 790 789 787 787 788 788 789 788 786 784 784 784 784 784 785 785 786 786 786 786 787 787 789 789 790 791 792 793 794 795 796 797 797 798 798 798 799 799 800 800 801 802 803 804 805 805 806 806 806 806 807 808 808 809 809 809 810 810 811 811 811 812 813
778 774 773 775 774 775 778 783 788 784 782 787 790 792 792 789 793 795 791 794 800 798 795 795 793 792 792 794 795 793 793 792 791 790 789 787 785 784 785 787 788 789 790 789 788 788 789 789 790 791 792 793 794 795 796 797 798 798 799 799 799 800 800 801 802 803 804 804 805 805 806 806 806 806 807 807 808 808 808 809 809 809 809 810 810 811 811
781 779 776 774 774 779 784 789 793 792 789 791 795 801 803 799 796 795 796 801 804 802 799 798 798 798 798 799 799 798 797 796 795 794 793 792 790 788 787 788 789 792 793 793 793 792 790 790 790 791 792 793 794 795 795 797 798 798 799 799 800 801 801 802 802 803 804 804 805 805 805 806 806 806 807 807 807 808 808 808 808 808 808 809 809 810 810
783 784 777 776 782 790 795 796 797 795 792 795 804 812 813 808 804 803 804 807 807 806 803 801 802 802 802 802 802 801 800 799 798 797 796 795 794 792 792 792 792 793 793 793 797 798 795 793 792 792 793 794 794 795 796 796 797 798 799 799 800 801 801 802 803 803 804 804 804 805 805 805 806 806 807 807 807 807 808 808 808 808 808 808 809 809 809
784 786 781 786 794 796 798 800 799 797 797 799 807 814 815 813 811 809 810 810 808 807 807 806 804 804 803 803 803 803 803 802 801 799 798 798 797 795 794 795 794 795 795 795 797 800 799 797 795 793 793 794 794 795 795 796 797 798 798 799 800 801 801 802 803 803 803 804 804 805 805 805 806 806 806 806 807 807 807 807 807 808 808 808 808 808 809
786 788 786 791 797 797 799 802 799 799 800 798 800 810 817 816 814 812 812 812 810 808 808 807 805 804 803 802 803 805 805 804 803 802 800 800 799 798 797 796 796 796 798 798 798 799 800 800 798 796 795 795 795 795 795 796 796 797 798 798 799 800 801 801 802 802 803 803 804 804 805 805 805 805 805 806 806 806 806 806 807 807 807 807 807 808 808
784 787 788 792 797 800 804 806 804 804 804 800 800 811 820 818 816 815 813 812 811 808 806 807 806 804 802 802 805 806 806 806 805 805 803 802 801 800 798 798 798 798 799 799 798 799 800 799 798 797 796 796 796 796 796 796 796 797 797 798 798 799 800 800 801 801 802 802 803 803 804 804 804 805 805 805 806 806 806 806 806 806 806 806 806 807 807
781 784 790 794 797 802 808 811 807 804 806 804 800 808 818 818 816 817 814 812 812 809 806 807 805 802 803 808 810 808 807 806 805 805 805 804 803 802 801 800 800 799 799 799 799 801 801 800 798 797 797 796 796 796 796 796 796 796 796 797 798 798 798 799 800 800 801 801 802 802 803 803 803 804 804 805 805 805 806 806 806 806 806 805 805 806 805
780 781 785 792 800 808 815 814 806 802 804 804 799 806 820 820 816 817 816 814 814 812 809 809 806 805 810 815 814 810 809 808 806 806 806 805 804 804 803 802 802 801 800 800 799 800 800 800 799 798 797 797 796 796 796 795 795 795 796 797 797 797 798 798 799 800 800 801 801 802 802 802 802 803 803 803 804 804 805 805 805 805 805 805 805 805 804
781 780 788 802 812 816 816 811 806 804 802 797 798 810 822 820 817 818 817 816 817 816 814 813 811 813 817 817 813 811 810 809 807 807 806 806 805 805 804 804 803 802 801 800 799 799 798 798 797 796 796 796 796 796 795 795 795 795 795 796 796 796 797 797 798 799 800 800 800 800 801 801 801 802 802 802 803 803 803 804 804 804 804 804 804 804 803
784 786 800 816 820 816 813 810 807 803 798 798 807 817 821 819 820 820 818 817 819 818 816 816 815 816 816 815 813 811 809 808 807 807 806 805 805 804 804 804 803 802 801 801 800 799 798 797 796 795 795 794 794 794 794 794 794 794 794 795 795 795 795 795 796 797 798 799 799 799 799 800 800 801 801 801 801 802 802 802 802 803 803 803 803 803 802
793 794 806 821 824 817 812 810 805 800 801 811 818 819 819 819 820 819 818 818 819 818 817 818 817 815 814 813 812 810 809 808 807 806 805 805 804 803 802 802 802 802 801 800 800 799 798 798 796 795 794 793 793 793 793 792 792 792 792 793 793 793 793 794 794 795 796 797 797 797 798 798 799 799 800 800 800 800 800 800 801 801 802 802 802 802 802
803 806 814 824 827 818 809 809 810 809 815 822 821 818 818 820 819 818 818 818 818 818 818 817 816 814 813 812 811 809 808 807 806 805 804 804 803 803 802 801 801 801 800 799 799 798 798 797 796 795 794 792 791 791 790 790 790 790 790 790 790 791 791 792 792 793 794 794 795 796 796 797 797 798 798 799 799 799 799 799 799 800 800 801 802 802 802
809 818 824 826 824 817 812 814 819 820 821 821 818 818 819 819 818 818 818 817 818 818 817 816 815 814 812 811 810 809 807 806 805 804 803 802 801 802 801 801 800 799 798 797 796 796 796 796 795 794 793 791 790 789 788 788 788 788 788 788 788 788 789 789 790 791 792 793 793 794 794 795 796 796 797 798 798 798 798 797 798 798 799 800 801 801 801
814 822 825 823 820 819 818 819 821 822 821 819 818 819 819 819 818 819 818 817 817 817 816 816 814 813 812 811 810 809 807 806 805 803 802 801 800 800 799 800 799 798 797 795 794 794 793 793 793 793 793 792 790 788 787 786 786 786 786 786 786 787 787 788 788 789 790 790 791 791 792 793 793 794 795 795 796 796 796 796 796 797 797 799 800 800 801
816 820 823 822 821 822 822 821 822 822 820 819 818 818 819 819 818 818 817 817 817 816 816 815 814 813 812 811 809 808 807 805 804 802 801 800 799 798 798 797 797 796 795 794 793 792 791 791 791 791 791 791 790 788 787 786 785 785 784 784 784 785 785 786 787 787 787 788 788 789 790 790 791 792 792 793 793 794 794 794 794 795 795 797 798 799 800
814 820 825 824 822 824 823 822 822 821 820 820 820 819 820 820 819 818 818 817 817 816 816 815 814 813 812 810 809 807 806 804 802 800 799 798 797 796 796 795 794 794 793 792 791 790 789 788 788 788 789 788 788 787 786 785 784 784 783 783 783 783 783 783 784 785 785 786 786 786 787 788 789 789 790 791 791 791 792 792 792 793 794 796 797 797 798
815 822 826 823 822 823 823 821 821 821 821 821 821 820 821 820 819 819 819 818 817 817 816 815 815 813 812 811 809 807 805 804 802 799 798 796 795 794 794 793 792 792 791 790 789 788 787 786 786 786 785 785 785 784 784 783 782 782 781 781 780 780 780 781 781 782 783 783 784 784 784 785 786 787 787 788 789 789 789 789 790 791 793 794 795 796 797
821 825 824 820 819 820 820 820 821 821 821 822 821 821 821 820 820 820 819 818 818 817 816 815 814 813 812 811 809 808 806 804 802 800 798 796 795 793 792 791 790 790 789 788 787 785 784 784 783 783 782 782 782 781 781 780 780 779 779 779 778 778 778 778 779 779 780 781 782 782 782 782 783 784 785 786 786 787 787 788 789 790 791 792 793 794 795
825 827 824 820 820 820 820 820 821 821 821 821 820 820 820 821 821 820 819 818 818 817 816 815 814 813 812 810 809 808 806 804 802 800 798 796 794 793 791 790 788 787 786 785 784 783 782 781 781 780 779 779 779 778 778 778 777 777 776 776 776 775 775 775 776 777 777 778 779 779 780 780 781 782 783 784 784 785 786 787 788 789 790 790 791 793 794
824 825 822 822 822 823 822 822 821 821 821 820 820 821 821 821 820 820 819 819 818 817 817 815 814 813 812 810 808 806 805 803 802 800 798 796 794 792 791 789 787 785 784 783 782 780 779 778 778 777 776 775 775 775 775 775 774 774 774 773 773 773 773 773 773 773 775 775 776 777 777 778 779 780 781 782 783 784 785 786 787 788 789 790 791 792 793
821 822 821 821 822 823 823 822 822 822 821 821 822 822 821 820 820 819 819 819 819 818 816 815 814 813 811 809 808 805 803 802 800 798 797 795 793 791 789 787 786 784 782 781 779 778 777 776 775 774 773 772 771 771 771 771 771 771 770 771 771 771 771 771 771 771 772 772 773 774 775 776 777 778 779 781 782 783 784 785 786 787 788 789 790 791 792
820 821 820 820 821 823 823 822 822 823 822 821 822 821 821 820 820 819 820 819 818 818 816 814 813 812 810 808 806 804 802 801 799 797 795 792 791 789 787 785 784 782 780 779 777 776 774 773 772 770 769 767 767 767 767 767 767 766 766 767 767 768 768 769 768 768 768 769 770 771 772 773 774 776 777 778 780 781 783 784 785 786 787 788 789 790 792
819 819 819 820 821 822 821 822 823 823 822 822 822 822 821 821 820 820 820 819 818 817 816 814 812 811 809 807 805 803 801 799 797 795 793 791 789 787 785 783 781 779 778 776 774 773 771 769 768 767 764 763 763 762 762 762 762 761 761 762 763 764 765 766 766 766 766 766 767 768 769 770 771 773 774 776 777 778 780 782 784 785 786 788 790 791 793
819 819 819 821 823 823 822 823 824 824 823 822 822 822 822 821 821 821 820 819 818 817 816 814 812 810 808 806 804 802 799 797 795 793 791 789 787 785 783 781 779 777 775 773 771 770 768 766 764 762 759 758 757 757 756 756 756 756 756 757 758 759 760 761 762 763 763 764 765 766 766 767 769 770 772 774 775 776 777 779 781 783 786 788 790 792 793
819 819 819 821 822 823 823 823 824 824 823 823 823 822 822 822 821 821 820 819 818 817 815 814 812 809 807 805 802 800 798 796 794 792 789 787 785 783 781 779 776 774 772 771 769 767 765 763 761 758 755 753 752 751 750 749 749 749 750 751 752 754 755 757 758 759 760 762 763 763 764 765 767 769 771 772 773 775 776 778 780 782 785 788 790 792 794
819 819 819 820 821 822 823 823 823 823 823 823 823 822 822 822 821 821 820 819 818 816 815 813 811 809 806 804 802 799 797 795 793 791 788 787 784 782 780 778 775 773 771 769 768 766 764 762 759 756 752 750 748 746 745 744 743 743 744 745 747 748 750 752 754 755 757 758 760 761 763 764 766 768 770 772 773 774 775 777 779 782 785 788 790 792 795
819 819 820 820 821 822 823 823 823 823 823 823 823 822 822 821 821 820 820 818 817 816 814 812 810 808 806 804 801 799 796 794 792 790 788 786 784 782 780 777 775 773 771 770 768 766 763 760 757 754 750 746 743 741 739 738 737 738 739 740 742 743 746 749 751 753 754 756 757 759 762 763 765 767 769 772 774 775 776 778 780 783 785 788 790 793 795
819 819 820 821 821 822 822 823 824 824 823 823 822 822 821 821 821 820 819 818 817 815 814 812 810 808 805 803 801 798 796 794 792 790 788 786 784 782 780 778 776 774 773 770 768 765 762 759 756 752 747 743 739 736 733 732 731 732 733 735 737 740 742 745 748 750 752 754 756 759 761 763 765 767 769 772 775 776 777 779 782 784 786 789 791 793 795
819 820 821 821 821 822 822 823 823 823 822 822 822 821 820 820 819 819 818 817 816 814 813 812 810 808 805 803 800 798 796 794 792 790 788 786 785 783 781 779 777 776 773 771 768 765 761 758 755 751 746 742 737 732 728 725 724 726 728 731 734 737 740 743 745 749 751 753 755 759 760 761 763 766 769 772 775 776 778 781 784 786 787 789 791 793 795
818 820 821 821 821 821 822 823 822 822 822 821 820 820 819 818 818 818 817 816 815 814 812 811 810 808 806 803 801 798 796 794 792 790 789 787 786 784 782 780 778 776 774 771 768 765 761 758 755 751 746 742 737 731 726 722 721 723 726 729 732 735 738 741 744 747 750 752 755 758 761 762 763 766 770 773 776 778 780 783 785 787 788 790 792 794 796
816 818 819 819 819 820 821 821 821 821 820 820 819 818 818 817 816 816 816 815 814 813 811 810 809 808 806 804 801 799 796 794 793 792 791 789 788 786 783 781 778 776 774 771 768 765 762 760 756 752 748 744 739 734 729 725 724 725 728 730 733 736 738 741 744 747 750 753 756 759 762 765 766 768 771 775 779 781 782 784 786 788 789 792 794 796 797
814 816 816 817 818 819 819 819 819 819 819 819 818 817 816 815 815 815 815 814 814 812 811 809 809 808 807 804 802 800 798 796 795 795 793 792 790 787 785 782 779 776 774 772 769 767 765 762 759 755 752 748 743 739 735 732 731 731 732 734 736 738 741 744 747 749 752 755 759 761 764 767 770 772 775 777 780 782 784 785 787 789 790 792 794 796 798
814 814 816 816 817 817 818 818 818 817 817 817 817 816 814 814 814 814 814 813 813 811 810 809 808 807 807 805 803 802 800 799 797 796 795 793 791 789 786 783 780 778 776 773 771 770 768 765 762 759 756 752 749 746 743 741 739 738 739 740 741 743 745 748 751 753 756 759 762 765 768 771 773 776 778 780 782 784 785 787 789 790 792 793 795 796 797
813 814 815 815 816 816 817 817 816 816 816 816 815 814 814 813 812 813 813 813 812 811 809 808 807 807 806 806 805 803 802 801 799 798 797 795 793 791 788 784 782 780 779 777 776 773 771 768 766 763 760 757 754 753 751 748 747 746 746 746 747 749 751 753 756 758 761 764 766 769 772 774 776 778 780 782 783 785 786 788 790 791 792 794 795 796 797
812 813 814 814 815 816 816 816 815 815 815 815 814 813 813 812 812 812 812 812 812 810 809 808 807 807 806 806 805 804 803 802 801 799 798 796 794 792 789 787 786 785 784 782 780 777 774 772 769 767 764 763 761 759 757 756 754 753 753 753 754 756 757 760 762 764 766 769 771 773 775 777 779 781 782 783 784 786 788 789 791 792 793 794 795 797 798
812 813 813 814 815 815 815 815 815 814 814 814 814 813 812 812 812 812 812 812 812 811 809 808 807 807 806 806 806 805 805 804 802 801 799 797 796 794 792 791 790 789 787 785 783 780 777 775 772 770 769 768 766 765 764 762 761 760 760 760 761 762 764 766 768 770 772 774 775 777 778 780 781 782 783 784 786 787 789 791 792 793 794 796 797 798 799
811 812 813 813 814 814 813 813 813 813 813 813 813 812 812 812 812 812 812 812 811 811 810 809 808 807 807 807 807 806 806 805 804 802 801 799 797 795 794 792 792 791 789 787 784 782 781 778 776 774 773 772 771 770 769 768 767 766 766 767 768 769 770 771 773 774 776 777 778 779 780 781 782 783 784 786 787 789 790 792 793 795 796 797 798 799 800
811 811 812 812 813 813 812 813 812 812 812 812 812 812 812 812 811 811 811 811 811 811 810 809 808 808 808 807 807 807 807 806 805 803 802 801 799 797 796 796 795 793 791 789 787 785 783 781 780 778 777 776 775 774 773 773 772 772 772 772 773 773 775 776 777 778 779 780 780 781 782 783 784 785 787 788 789 791 792 794 795 796 797 798 800 801 802
810 810 811 811 811 811 811 811 811 811 811 811 811 811 811 811 811 811 811 811 811 810 810 810 809 809 808 808 808 807 807 807 806 805 803 802 801 800 800 799 798 796 794 792 790 788 786 785 784 782 781 780 779 778 777 776 776 776 776 776 777 777 778 779 780 781 782 783 784 785 785 786 787 788 789 791 792 793 794 796 797 798 799 800 801 802 803
808 809 809 810 810 810 810 810 810 810 810 810 810 811 811 811 811 811 811 811 811 810 810 810 810 809 809 808 808 808 808 807 807 806 805 804 803 803 802 801 800 798 796 795 793 791 790 789 787 786 785 784 783 782 781 780 780 780 780 780 781 781 782 783 784 785 786 786 787 789 789 790 791 791 792 793 795 796 797 798 799 800 801 802 803 804 804
806 807 807 808 808 808 808 809 809 809 809 809 809 810 810 810 810 810 810 810 810 810 810 810 809 809 809 809 808 808 808 808 807 806 806 805 804 804 804 803 801 800 798 797 795 794 793 792 791 790 788 787 786 785 784 783 783 783 784 784 785 785 786 786 787 788 789 790 791 792 793 793 794 795 796 797 798 799 800 800 801 802 803 803 804 805 805
804 805 805 806 806 806 807 807 807 807 808 808 808 809 809 809 809 810 810 810 810 810 810 809 809 809 809 809 809 809 808 808 808 807 806 805 805 805 805 804 803 802 801 799 798 797 796 795 794 793 792 790 789 788 787 786 787 787 787 787 788 788 789 790 790 791 792 793 794 795 795 796 797 798 799 800 800 801 802 803 803 803 804 804 805 805 806
802 803 803 804 804 804 805 806 806 806 806 807 807 808 808 808 809 809 809 809 810 809 809 809 809 809 809 809 809 809 809 809 808 808 807 806 806 806 806 805 804 804 803 801 800 800 799 798 797 796 795 794 793 791 791 790 790 790 790 790 791 791 792 793 793 794 795 795 796 797 798 798 799 800 801 801 802 803 803 804 804 804 805 805 805 806 806
800 800 801 802 802 802 803 804 805 805 805 806 806 806 807 807 808 808 809 809 809 809 809 809 809 809 809 809 809 809 809 808 809 809 808 808 807 807 806 806 805 805 804 803 802 802 802 801 800 799 798 797 796 795 795 794 794 794 794 794 794 795 795 796 796 797 798 798 799 799 800 800 801 802 802 803 804 804 805 805 805 805 806 806 806 806 807
797 798 798 799 800 800 801 803 803 804 804 804 804 804 805 806 806 807 808 808 808 809 809 809 809 809 809 809 809 809 809 808 808 809 809 809 808 808 807 807 806 806 805 805 804 804 804 803 802 801 801 800 799 799 798 798 798 798 798 798 798 798 799 799 799 800 800 801 801 802 802 802 803 804 804 805 805 806 806 806 806 807 807 807 807 807 807
795 795 796 797 798 799 800 801 801 802 802 802 802 803 804 804 805 806 806 807 807 808 808 809 809 809 809 809 809 809 809 809 809 809 809 809 809 809 808 808 807 806 806 806 805 805 805 805 804 804 803 802 802 801 801 801 801 801 801 801 801 801 802 802 802 803 803 804 804 804 805 805 805 806 806 806 807 807 807 807 807 807 807 807 807 807 807
792 793 794 795 796 796 797 798 799 799 800 800 801 801 802 803 803 804 804 805 806 807 807 808 808 809 809 809 809 809 809 809 809 809 810 810 810 809 809 808 808 807 807 806 806 806 807 807 806 806 805 805 804 804 804 804 804 804 804 804 804 804 804 804 805 805 806 806 806 807 807 807 808 808 808 808 808 808 808 808 808 808 808 808 808 808 808
790 791 791 792 793 794 794 795 796 797 797 798 799 799 800 800 801 801 802 803 804 805 806 807 808 808 808 809 809 809 809 809 810 810 810 810 810 810 810 809 809 808 807 807 807 807 807 807 807 807 807 807 806 806 806 806 806 806 806 806 806 806 807 807 807 807 808 808 808 809 809 809 810 810 810 810 810 810 810 810 810 809 809 809 809 808 808
788 788 788 789 790 791 792 792 793 794 795 796 796 797 798 798 799 799 800 801 802 803 804 805 806 807 807 808 808 809 809 809 809 810 810 810 810 810 810 810 809 809 808 808 808 808 808 808 808 808 808 809 808 808 808 808 808 808 808 808 808 808 809 809 809 809 809 810 810 810 811 811 811 811 811 811 811 811 811 811 811 811 810 810 810 809 809
Wind_Speed
2 3 3 4 5 4 3 5 5 4 5 6 6 3 1 4 4 3 2 6 6 2 6 6 5 2 4 5 3 4 3 3 3 3 4 5 5 6 6 6 6 6 5 4 7 10 11 13 16 17 18 17 16 17 16 16 16 16 16 16 14 13 12 10 9 8 9 11 12 12 12 13 13 13 11 11 11 13 14 14 14 14 15 16 16 16 18
3 4 5 7 7 6 5 5 5 3 4 6 6 3 3 7 5 4 6 10 6 3 4 4 5 5 4 6 6 7 7 6 6 6 5 4 3 3 5 6 7 7 7 7 9 11 12 13 14 16 17 15 14 14 14 12 13 12 12 12 11 11 10 9 9 9 8 8 8 9 9 8 9 8 8 8 8 9 10 11 12 13 14 15 15 16 18
4 4 5 7 7 6 6 7 7 5 5 6 5 3 4 7 6 4 8 10 5 4 4 4 5 6 8 10 9 9 8 7 8 8 6 4 3 1 0 2 3 4 7 9 11 12 12 11 12 13 14 14 14 13 12 11 10 10 10 10 9 9 9 9 9 9 8 7 7 8 7 6 6 6 6 6 7 8 9 10 11 12 12 13 14 15 16
3 3 5 5 5 7 7 7 9 8 6 6 4 4 4 4 5 4 7 7 2 5 4 4 6 9 11 10 8 7 7 7 8 8 7 6 5 3 2 2 4 4 4 5 7 12 15 13 13 14 13 13 12 11 10 9 8 7 7 7 6 6 7 7 7 7 6 7 8 8 7 6 6 6 6 7 7 7 8 9 9 11 12 13 13 13 14
3 3 4 5 5 6 4 3 5 5 3 7 6 7 9 5 4 4 4 3 2 5 4 6 8 10 10 9 7 6 6 7 8 7 6 7 7 6 4 4 7 7 8 10 9 8 15 17 14 13 14 13 12 11 10 9 8 6 5 5 5 6 6 5 6 6 6 7 8 7 7 6 5 5 4 3 2 2 2 3 5 6 9 10 10 10 11
2 4 3 6 4 2 3 5 4 1 7 13 11 7 8 8 5 4 3 3 1 4 5 7 8 8 8 7 7 6 6 6 6 7 7 7 7 8 8 7 7 8 11 14 14 12 11 15 14 12 12 12 10 9 8 7 7 6 4 4 4 5 5 4 4 5 5 5 6 7 7 7 7 6 5 4 3 1 1 1 2 3 5 6 7 7 8
3 2 5 5 1 4 5 3 4 4 11 15 14 10 9 9 7 6 5 4 4 5 5 4 4 6 7 8 9 9 8 6 6 6 7 7 7 7 7 7 7 10 12 13 11 10 11 12 13 12 10 9 7 6 5 5 6 5 4 4 3 3 6 5 3 4 4 3 5 7 7 6 6 4 3 2 2 1 2 2 3 4 5 6 6 6 7
2 1 3 2 5 3 1 3 4 5 6 8 10 10 9 8 6 5 5 5 6 6 5 4 1 2 4 8 9 8 8 7 7 6 6 6 6 6 7 8 10 12 12 10 7 6 6 9 12 12 10 8 7 7 5 4 4 2 1 1 1 2 5 7 5 5 5 4 5 6 5 4 4 3 4 3 3 4 5 6 6 6 6 7 8 8 7
3 4 3 2 2 1 2 4 3 2 2 2 3 5 3 5 5 4 4 5 7 6 6 6 4 2 2 7 7 6 6 6 6 6 6 6 5 6 8 11 11 11 9 7 7 7 6 7 7 7 8 7 7 6 5 4 3 3 2 3 4 4 3 5 7 8 8 7 7 7 7 5 5 5 5 5 5 5 6 8 8 8 9 9 9 9 9
3 5 2 1 2 4 3 4 5 3 3 3 4 6 3 4 5 4 4 5 6 6 6 7 6 3 5 6 5 6 6 5 5 6 6 7 7 6 7 8 8 9 8 4 3 5 8 8 7 6 7 6 6 6 5 4 4 4 3 4 5 5 4 3 2 5 7 7 7 8 8 7 7 7 7 7 6 6 7 8 9 9 10 11 10 10 10
3 5 3 3 3 4 4 5 7 7 5 2 4 6 2 3 6 5 4 5 6 5 4 6 6 6 5 3 5 5 6 6 6 7 7 8 9 7 6 6 7 9 10 8 5 4 5 8 8 7 7 6 4 5 7 7 8 8 7 7 7 5 4 5 6 5 4 5 5 6 6 7 7 8 8 8 8 8 8 8 9 10 11 12 13 12 11
1 4 3 1 2 1 2 5 7 8 6 3 6 3 2 3 5 6 4 6 6 5 4 4 5 5 2 2 5 5 5 6 9 10 10 12 13 12 11 12 12 13 14 14 13 11 10 11 11 11 11 9 6 8 9 10 10 9 9 10 11 10 9 9 9 8 7 7 6 5 5 6 7 9 10 11 11 10 9 9 9 10 11 13 14 12 11
2 3 3 2 1 1 3 5 8 8 4 6 5 4 5 1 4 5 5 6 6 5 5 4 3 1 2 4 5 5 5 6 8 10 13 15 17 17 17 17 17 17 17 17 15 15 16 17 17 16 16 15 12 11 12 13 13 11 11 12 13 13 13 13 11 11 10 9 9 8 8 9 11 12 13 14 13 11 10 10 9 9 11 13 12 11 10
2 2 3 2 1 1 3 4 6 5 4 4 1 3 2 2 3 4 5 5 5 5 5 3 2 3 5 4 3 5 6 5 6 8 12 14 16 19 21 20 19 18 17 17 16 17 19 20 20 20 18 17 15 12 12 13 14 13 14 15 15 14 14 15 15 15 13 11 10 10 10 10 11 12 12 13 13 12 11 10 9 8 10 10 10 9 8
2 3 3 2 1 2 3 2 5 6 4 1 2 1 3 3 3 4 4 4 3 3 4 4 4 5 5 5 5 6 5 6 7 9 11 10 10 13 17 19 20 19 16 14 15 17 19 20 22 23 21 18 17 15 14 14 14 13 14 14 15 15 14 14 14 14 13 11 10 9 9 10 11 12 12 12 13 14 13 11 9 8 8 8 8 8 7
2 3 2 1 1 2 3 3 3 3 2 1 1 3 3 3 3 3 3 3 3 2 3 4 5 5 6 6 6 7 7 6 7 10 12 13 13 13 13 16 18 18 16 15 16 17 19 19 20 20 20 19 18 16 14 12 10 10 10 10 12 14 15 15 15 14 12 11 10 10 11 12 14 15 16 15 15 16 15 13 11 9 7 8 9 8 7
4 3 2 3 3 4 6 6 4 3 2 1 3 5 2 2 1 0 2 3 4 3 2 4 4 4 5 6 6 6 7 7 7 9 12 14 15 16 15 16 16 15 15 16 17 18 18 17 16 16 16 16 15 13 10 7 4 4 5 5 6 8 10 11 12 12 12 12 12 12 13 14 17 19 20 18 17 17 17 16 14 11 10 10 11 10 9
5 4 4 4 5 5 5 4 4 3 3 3 3 4 2 3 3 2 2 3 4 4 3 3 4 4 6 6 7 7 7 7 9 11 13 14 15 15 16 16 16 14 14 15 16 16 17 16 15 15 15 14 14 14 12 9 7 6 5 5 6 5 6 7 8 10 11 12 13 14 16 17 18 19 18 17 16 17 19 19 17 15 14 14 13 12 11
3 3 3 2 2 4 4 3 3 3 4 4 4 4 4 4 4 4 4 4 4 5 5 5 5 6 6 6 7 7 6 7 9 11 13 14 15 16 16 16 16 15 14 14 13 13 15 17 16 16 17 17 16 15 14 13 13 11 10 9 9 9 8 8 8 8 11 12 12 12 14 16 16 15 15 15 16 17 19 20 18 16 16 15 15 14 14
3 3 2 3 2 5 4 5 3 3 4 4 4 5 4 5 5 6 7 6 5 5 5 5 5 6 7 7 7 7 6 7 9 11 14 15 15 14 14 13 13 13 12 12 12 13 15 15 15 17 19 20 19 16 14 13 13 14 13 12 11 11 11 11 10 9 11 12 13 13 13 13 12 11 12 14 16 18 20 21 19 17 16 16 16 16 16
3 0 3 4 1 2 3 6 5 4 4 3 4 5 5 5 6 6 7 8 6 5 5 5 5 5 6 6 7 7 7 7 9 12 14 15 14 13 13 12 12 13 14 15 15 16 17 17 18 19 20 20 19 16 13 12 12 13 15 15 15 15 13 13 13 12 12 13 15 16 15 12 11 11 12 14 15 16 17 17 15 13 14 17 18 17 16
2 2 3 2 1 1 4 5 5 4 3 4 5 5 5 5 5 5 6 7 7 7 8 8 7 5 6 7 8 8 7 8 12 15 15 15 16 17 18 18 17 17 17 18 18 19 21 21 20 19 18 18 18 16 14 12 11 11 13 14 16 16 15 14 14 14 14 15 16 15 14 13 13 14 14 15 17 16 15 14 14 13 12 13 15 15 16
3 5 4 2 3 2 4 5 4 4 4 5 5 5 5 4 5 5 5 6 7 7 9 11 10 6 7 10 10 8 8 11 15 16 16 16 18 20 20 20 19 19 19 19 18 18 19 20 19 18 19 20 21 21 20 18 16 14 13 13 14 14 13 12 12 12 12 14 14 13 14 15 16 17 16 14 14 14 13 13 14 13 12 11 11 13 15
2 3 4 4 4 1 3 3 4 5 5 6 5 4 4 4 6 7 7 6 6 6 6 9 11 10 10 12 12 10 11 15 17 18 19 19 20 21 20 19 19 19 19 18 18 18 18 19 20 21 22 22 22 23 23 23 23 21 19 17 16 15 13 12 11 11 12 13 13 13 15 17 19 19 17 15 12 11 12 12 12 12 12 11 12 13 15
2 3 3 4 5 2 1 1 4 6 8 7 4 4 6 7 8 10 8 6 8 8 7 8 11 13 14 14 14 13 14 17 19 19 20 21 20 20 20 19 20 20 20 20 21 21 22 22 23 24 25 26 24 23 23 24 24 24 24 22 21 20 18 15 12 10 11 13 14 15 18 21 22 22 20 18 16 13 12 11 11 10 11 11 12 15 16
4 3 3 4 4 2 2 3 4 5 7 8 5 5 8 9 10 9 8 7 8 10 10 10 12 15 16 15 15 15 15 17 19 19 18 18 19 19 19 20 21 22 22 23 23 23 23 24 24 25 27 29 29 28 27 27 26 25 26 26 25 25 24 22 17 13 11 12 14 18 21 24 26 25 23 21 20 18 17 15 14 13 13 14 14 16 17
3 3 4 4 4 3 3 4 3 2 6 8 7 6 9 10 9 7 7 7 8 10 12 13 14 15 15 15 15 15 15 16 17 17 16 17 18 18 19 21 22 22 22 22 23 23 24 24 25 26 28 30 30 30 30 29 29 28 28 27 26 26 26 26 24 20 15 13 15 20 24 26 27 26 24 22 22 22 22 22 22 21 20 21 20 19 19
3 2 4 4 2 2 3 5 5 5 7 8 7 7 8 7 5 5 5 6 8 11 12 14 14 13 13 14 14 14 14 14 15 15 15 16 17 17 17 18 19 19 19 19 20 21 22 23 24 26 27 27 26 25 25 25 25 27 27 27 26 26 26 25 24 22 20 16 16 21 25 27 26 25 24 23 24 24 25 26 27 27 25 24 24 23 22
4 3 4 5 5 6 6 6 6 5 6 6 5 6 4 2 3 4 4 6 8 9 10 13 14 13 13 14 14 13 13 12 13 13 14 14 14 13 14 15 14 11 11 12 14 15 17 18 20 22 23 23 21 21 21 21 22 23 24 24 25 26 26 23 19 18 18 18 18 20 24 25 24 23 23 22 24 27 28 28 29 28 26 25 25 24 23
3 4 5 4 5 7 6 4 4 3 2 3 2 2 1 2 3 4 5 6 6 6 8 11 13 12 12 13 13 13 12 12 12 13 13 13 14 15 15 16 15 12 12 13 13 14 15 16 17 19 21 21 20 19 19 20 22 23 22 22 23 24 24 24 20 15 14 16 18 20 23 23 24 24 24 24 24 26 28 29 30 29 27 27 27 26 24
4 5 5 4 5 6 5 3 3 2 1 2 3 4 3 3 4 4 4 5 6 6 8 10 12 12 13 13 14 14 14 12 12 13 14 15 17 17 16 15 14 12 13 14 15 16 18 18 19 21 21 21 19 17 16 18 21 22 22 22 22 21 22 23 22 17 14 15 18 21 24 25 25 25 26 25 24 25 28 28 28 28 28 28 27 26 25
6 5 4 3 4 5 4 4 4 2 3 3 2 4 5 4 4 5 4 5 6 7 8 9 10 12 14 14 14 15 15 12 13 15 17 19 19 17 14 14 12 11 12 15 17 19 20 21 22 23 22 21 20 17 12 13 17 20 21 20 20 19 19 20 21 19 17 19 22 24 26 28 29 28 27 25 25 27 29 28 26 26 28 28 27 26 25
5 3 2 1 2 4 4 4 4 4 5 4 4 6 7 7 7 6 6 6 7 8 8 8 9 12 15 15 15 16 16 14 14 17 20 21 19 17 15 13 11 11 15 18 20 21 22 24 25 25 22 21 24 23 16 5 5 12 16 18 18 18 19 20 22 23 22 24 26 26 26 27 29 29 28 27 27 28 28 27 25 25 25 25 24 23 22
6 5 5 5 4 5 5 5 4 4 5 5 6 8 9 9 9 7 6 5 6 7 8 8 8 10 13 15 16 17 17 15 13 16 20 20 18 17 15 12 11 13 18 22 24 25 25 25 26 27 26 24 24 27 25 19 13 11 13 15 15 15 17 21 24 26 26 26 27 27 26 27 28 29 30 29 27 26 26 25 25 24 22 20 19 18 17
10 8 8 8 8 7 8 7 5 5 4 4 6 8 10 10 9 7 6 5 5 5 7 7 7 7 10 14 16 17 18 16 14 16 19 19 18 16 14 14 16 19 22 25 27 26 25 25 25 27 28 28 28 28 29 29 27 24 22 21 21 21 21 23 25 27 28 27 27 28 28 27 28 28 29 27 26 25 25 24 22 21 19 17 16 15 13
12 9 6 8 10 9 8 7 5 6 7 6 8 10 12 12 10 7 6 5 4 5 6 6 7 6 7 11 14 15 16 17 16 16 17 18 17 15 14 17 21 23 22 24 26 26 24 24 25 26 28 31 31 30 30 30 31 31 30 29 29 28 28 28 27 28 29 28 28 27 27 27 27 26 25 24 22 21 20 19 16 15 14 14 14 13 12
13 11 8 9 11 11 9 7 7 8 9 9 9 9 11 11 7 3 4 3 2 3 5 6 7 6 5 8 11 13 14 15 15 15 15 16 16 15 17 21 23 23 21 21 24 24 23 22 24 26 28 30 31 31 30 30 31 32 31 31 30 30 29 29 28 28 28 27 27 26 25 24 23 21 20 19 19 17 15 14 12 12 12 12 13 14 14
13 12 11 10 10 10 9 8 8 9 11 10 7 3 4 4 1 6 6 3 1 3 5 6 7 5 4 6 10 13 13 13 14 15 15 15 15 16 18 21 22 20 19 19 21 22 22 22 23 25 27 28 29 30 29 29 31 32 32 32 31 30 30 28 27 26 25 23 22 20 19 18 17 17 18 18 17 16 14 14 14 14 14 14 15 17 17
9 10 11 10 8 8 8 10 10 11 12 10 5 1 4 4 5 8 7 4 3 5 7 8 9 9 7 8 10 13 13 12 13 14 15 15 15 16 19 21 22 20 18 19 21 22 22 21 22 24 25 25 27 28 28 29 30 31 31 30 30 29 28 26 25 24 22 21 20 19 19 18 18 18 19 18 18 17 16 16 16 16 17 17 19 19 20
9 10 10 9 8 8 9 11 12 13 13 9 4 1 3 4 6 6 5 4 4 6 8 8 9 10 9 9 9 11 13 13 13 14 14 15 16 16 18 22 24 22 19 20 23 23 22 21 23 23 23 23 24 26 27 28 29 30 30 30 29 28 27 27 26 25 24 23 23 23 23 22 22 21 21 20 20 20 19 19 19 19 19 20 20 20 19
11 12 11 11 11 11 12 13 13 14 13 9 5 3 2 2 4 5 5 4 4 4 7 8 9 9 9 9 10 11 13 14 15 16 16 17 17 16 15 18 21 21 20 21 23 23 22 22 22 23 22 22 23 23 24 26 27 28 28 28 28 28 27 27 26 25 24 24 25 24 24 24 24 23 23 23 22 22 21 20 20 20 20 20 19 19 18
11 14 13 12 13 13 14 14 14 14 12 9 8 5 2 2 3 4 5 4 4 5 5 7 9 10 10 10 11 10 11 12 14 16 17 18 18 15 14 16 20 21 20 20 22 23 22 22 22 21 21 22 21 21 22 24 25 26 27 27 26 26 26 25 24 24 23 24 24 23 23 24 24 23 23 23 22 21 21 20 20 19 19 18 18 17 17
13 15 15 14 15 15 16 16 15 14 11 10 9 6 4 3 4 4 5 5 4 4 5 7 8 10 11 12 12 11 9 9 11 14 16 17 18 18 16 17 20 21 20 20 21 22 21 21 21 20 20 20 21 21 21 22 23 24 25 26 26 26 26 25 24 24 24 24 23 23 23 23 23 23 23 22 21 20 19 18 18 17 16 16 16 15 14
16 16 17 17 16 16 17 16 14 11 10 11 9 7 6 6 5 5 5 5 5 4 5 6 8 9 10 12 12 11 10 9 10 12 13 15 16 17 17 18 19 19 19 19 20 20 20 19 18 17 17 19 20 21 22 23 23 23 23 24 25 25 25 24 24 23 23 23 22 22 21 21 21 21 20 20 19 18 17 17 16 15 14 13 12 11 11
17 17 18 19 17 16 16 14 11 9 10 13 11 9 9 8 6 6 6 6 5 5 5 5 7 8 9 11 12 12 11 10 10 11 12 11 11 12 14 15 16 17 17 17 18 18 18 16 15 15 16 16 18 20 22 23 23 23 23 23 23 23 23 23 22 22 22 21 20 20 19 19 18 18 17 16 16 15 14 13 12 12 11 10 9 8 7
18 18 19 18 17 16 16 13 10 9 11 15 13 11 11 10 9 8 7 6 5 5 5 5 6 8 9 10 11 12 11 11 10 10 11 11 10 10 11 13 13 13 15 16 17 17 16 14 14 14 15 16 17 19 21 21 22 22 23 23 22 22 22 22 21 20 20 19 18 17 16 16 16 16 15 14 13 12 11 10 10 9 9 8 7 6 5
19 18 18 18 17 17 16 13 10 7 10 14 13 11 12 12 11 10 9 7 6 6 6 6 6 7 8 8 8 9 10 11 10 8 8 8 9 10 10 11 11 12 13 15 16 16 15 14 14 15 15 16 18 19 19 20 20 21 21 22 22 21 21 20 20 19 19 19 18 17 16 15 14 14 13 13 12 12 12 11 10 9 8 7 7 6 5
19 19 19 20 19 17 16 13 10 8 10 14 15 15 15 14 13 12 10 9 8 7 7 7 6 6 7 7 7 6 5 6 6 6 6 7 8 10 11 11 11 12 13 14 15 15 15 15 15 15 15 16 18 18 19 19 19 19 19 19 19 19 19 19 18 18 18 19 19 18 18 17 15 15 14 14 13 12 12 12 12 10 9 8 7 6 5
19 20 20 20 19 17 15 13 12 11 12 14 16 17 16 15 15 14 13 12 11 10 9 8 7 7 6 7 7 6 4 3 5 8 9 9 9 9 10 11 12 11 12 13 14 15 14 14 15 15 15 16 17 17 18 18 18 18 18 18 17 17 17 17 17 17 17 17 16 16 16 16 16 15 14 13 13 11 11 11 11 10 9 9 8 7 5
17 18 18 18 18 18 16 15 15 15 15 15 15 17 18 18 17 17 16 15 14 13 12 10 9 8 7 7 8 8 7 7 8 11 12 11 9 8 8 10 11 11 11 12 13 13 13 14 14 14 15 15 15 15 16 16 16 16 16 16 16 16 16 15 15 14 14 14 15 16 15 15 14 13 13 12 12 11 10 9 9 8 8 8 8 8 7
15 17 18 19 21 22 21 19 18 19 19 17 16 16 19 21 20 19 18 18 17 16 15 13 11 10 9 7 7 8 8 8 9 10 10 9 9 8 7 7 8 10 10 11 11 12 12 12 12 13 13 14 14 15 14 14 14 14 14 13 13 13 14 14 15 14 14 14 15 15 14 13 12 12 11 11 11 10 9 9 8 8 7 8 8 8 9
15 17 18 20 21 23 23 22 21 20 20 19 18 17 21 24 23 20 19 19 19 19 19 18 15 14 12 10 8 8 8 8 8 9 9 9 9 8 7 6 6 7 9 10 11 11 10 11 11 12 12 12 13 14 14 14 14 14 13 13 12 12 13 13 14 14 14 14 14 13 13 12 12 11 11 11 11 11 10 8 8 8 8 8 8 9 9
Wind_Direction
107 100 55 38 59 62 44 27 4 358 30 64 84 72 213 138 124 219 234 81 89 322 338 353 329 322 122 121 111 114 114 108 102 101 116 120 119 121 123 127 126 126 131 123 117 122 123 123 122 122 120 119 121 125 129 136 144 152 160 164 168 173 173 174 180 191 199 206 214 213 205 205 213 222 231 237 241 241 241 243 248 252 252 252 250 247 248
42 37 41 51 56 50 44 32 11 31 73 83 93 84 79 92 100 158 126 88 71 359 342 347 342 359 60 71 54 50 47 47 62 68 73 72 70 105 133 144 140 133 133 132 127 126 129 131 131 129 125 121 121 126 128 132 137 144 154 158 159 164 168 169 177 186 189 191 202 210 211 213 220 226 230 233 236 239 243 248 251 254 255 258 261 261 262
346 358 48 58 62 69 59 26 3 20 60 59 58 47 53 78 79 84 91 80 47 347 335 341 2 35 60 57 48 45 41 44 57 58 53 43 20 338 142 143 141 131 127 128 127 125 124 131 136 134 130 125 125 129 130 130 133 139 148 152 153 156 158 162 169 173 179 190 199 205 211 219 222 225 232 236 240 248 254 259 262 263 267 270 271 271 271
303 331 57 55 62 70 58 25 357 357 33 62 60 28 26 98 131 96 70 71 8 312 329 13 35 52 62 59 48 44 39 39 51 52 38 26 9 337 330 56 48 37 55 87 112 119 114 114 126 137 143 139 135 138 139 135 132 135 139 139 145 154 150 152 164 170 180 197 200 204 215 225 225 227 236 245 253 264 270 275 279 278 276 277 279 282 280
288 307 65 64 57 48 16 332 323 324 59 84 70 32 18 37 116 108 87 118 255 301 351 56 58 57 64 63 52 49 43 35 39 43 39 33 25 15 21 59 65 55 39 25 26 81 105 102 104 121 134 132 127 130 135 137 142 150 154 146 145 156 161 167 181 185 189 197 201 205 208 208 204 199 197 202 217 261 287 299 300 291 283 278 279 284 282
251 285 35 56 51 41 254 267 293 277 106 92 78 48 16 17 49 84 110 134 320 345 35 71 77 75 75 70 63 61 57 48 40 33 32 36 39 41 44 54 63 66 64 52 30 22 56 80 88 103 117 115 112 119 126 136 146 144 149 163 164 175 187 194 198 191 186 183 179 171 164 159 158 155 149 141 129 104 28 347 337 327 313 296 286 284 280
181 299 45 58 258 218 213 268 349 80 105 98 88 67 30 19 33 56 64 41 4 15 44 71 107 111 95 76 63 54 49 49 44 33 27 32 41 48 48 50 52 44 47 59 53 25 22 46 68 83 92 90 88 92 106 141 158 149 147 166 185 209 206 202 202 197 197 192 170 161 160 161 163 169 183 197 211 253 284 302 315 321 326 325 320 309 292
148 93 85 153 228 219 161 348 7 62 79 79 77 59 25 8 14 37 48 22 358 7 21 22 62 150 98 69 56 51 52 53 47 36 21 23 42 62 57 50 45 33 21 17 25 30 30 39 52 60 59 58 60 58 64 96 125 125 142 215 301 270 216 211 217 213 216 228 212 195 194 199 200 210 223 237 255 268 278 284 289 297 309 321 325 318 301
141 146 164 194 226 236 5 346 339 45 9 340 102 95 44 359 5 22 39 22 4 2 8 6 340 285 60 49 27 18 39 53 60 54 33 23 33 52 60 60 53 41 28 4 340 335 349 10 23 30 23 21 28 32 41 59 62 55 34 1 346 333 281 236 226 223 232 246 235 216 215 223 227 229 227 232 248 262 276 284 287 294 302 309 314 309 293
113 118 149 155 181 214 250 289 285 288 284 246 150 117 90 346 347 5 40 28 2 358 7 3 350 1 54 39 349 335 358 17 44 50 46 50 50 41 47 59 51 31 27 28 337 308 306 306 308 316 319 321 342 351 347 349 346 338 341 344 346 354 0 349 278 240 238 241 229 215 219 226 224 222 221 223 239 258 273 284 292 302 307 305 303 303 293
114 121 148 173 179 210 247 277 298 311 303 272 103 94 65 328 329 339 29 28 351 342 5 13 24 52 54 0 315 320 335 351 15 23 20 25 28 27 28 29 19 7 2 1 357 334 294 286 296 306 298 285 284 297 298 298 303 308 306 300 303 315 327 334 329 306 265 246 238 231 236 235 226 226 231 240 258 269 270 275 286 296 305 308 306 303 295
117 122 122 133 130 142 273 278 293 301 308 28 83 111 254 313 334 328 10 35 8 356 18 36 57 72 62 302 294 301 322 1 17 18 12 3 1 9 16 12 6 3 1 355 344 332 319 311 311 312 308 300 271 254 265 274 275 282 287 285 287 291 292 296 303 299 286 278 273 265 259 259 262 265 267 271 274 269 260 260 272 286 298 306 306 301 290
49 87 99 111 109 334 292 287 292 298 337 54 92 195 228 304 352 349 29 46 27 22 36 45 61 86 243 251 274 304 345 13 11 9 10 4 359 0 2 3 5 3 359 357 350 337 330 325 316 304 298 298 289 269 258 256 256 254 255 260 267 273 278 283 285 282 280 276 274 275 278 283 287 285 282 279 273 262 253 253 262 280 296 300 298 291 278
26 72 108 109 76 270 248 269 313 345 51 79 175 208 164 78 27 20 41 42 25 25 29 20 340 287 275 275 311 338 357 0 348 353 2 2 358 352 348 349 355 355 351 351 351 346 341 339 332 319 302 291 289 282 264 256 257 257 256 258 258 260 265 271 273 274 277 278 278 280 282 285 288 288 286 280 268 255 249 251 262 282 293 291 284 274 260
38 59 77 98 131 266 260 287 352 22 71 169 256 68 72 54 36 33 34 29 21 26 15 345 325 318 319 330 341 341 340 340 337 337 342 346 348 346 341 337 338 340 342 342 342 338 336 337 339 335 324 304 288 276 271 274 277 273 268 263 257 253 254 256 260 265 267 269 271 274 278 284 289 291 291 282 267 255 250 251 262 276 280 272 262 253 237
67 61 52 82 185 325 16 62 74 75 117 187 117 86 49 7 15 27 14 351 336 11 23 343 325 327 331 330 330 333 332 330 328 327 329 331 331 330 330 327 324 325 326 327 330 330 329 330 333 334 332 322 303 281 272 276 277 273 275 272 262 256 252 248 248 251 253 256 261 265 274 283 287 290 290 284 270 257 250 250 253 252 247 242 238 231 221
89 95 71 71 82 56 53 73 96 99 77 58 98 109 86 352 317 301 12 332 305 310 357 335 321 316 314 312 313 315 314 309 308 311 314 315 315 314 314 315 315 313 313 317 321 322 323 327 331 329 327 325 320 309 298 288 266 245 252 262 263 262 259 255 252 250 248 250 257 264 272 279 282 282 282 283 278 262 247 240 238 230 221 220 221 217 212
98 74 39 47 81 81 70 82 96 79 43 23 60 89 58 334 309 307 336 309 294 298 317 324 316 297 292 299 302 302 303 300 299 301 300 301 304 304 304 307 308 305 303 307 310 312 314 317 320 321 319 314 311 311 308 305 302 289 267 255 254 255 259 263 267 266 262 258 259 264 267 269 271 271 270 276 281 268 246 233 228 221 211 207 206 206 206
106 77 1 345 103 105 84 85 91 62 36 17 29 45 15 346 347 351 349 342 334 339 344 340 325 309 305 308 303 299 300 297 294 295 294 294 297 299 301 308 311 306 301 302 303 305 309 311 311 311 309 306 304 302 297 292 293 292 286 275 267 261 260 264 270 277 277 270 262 259 261 261 264 266 266 270 275 264 241 224 215 208 202 198 199 202 202
109 152 263 291 191 151 101 67 45 33 35 28 30 36 21 11 15 7 360 0 359 355 351 343 329 320 318 317 311 306 302 296 293 292 291 292 296 303 311 318 321 317 312 310 306 302 302 307 308 305 301 298 298 299 296 290 283 279 276 273 268 264 262 263 265 270 274 270 259 249 251 257 260 261 260 261 261 251 233 219 207 198 196 203 208 207 202
60 94 319 335 243 178 59 40 28 26 44 47 41 39 38 36 29 12 359 355 349 345 343 336 334 338 332 328 329 326 315 309 310 310 310 312 315 319 321 320 317 313 308 304 301 299 297 299 299 298 296 291 288 288 290 290 287 282 277 273 268 264 259 257 260 263 268 271 264 253 246 242 236 232 229 225 225 224 220 216 214 211 214 219 217 212 207
41 284 297 348 103 252 316 351 8 17 39 60 50 35 35 37 27 4 351 347 348 358 6 7 6 355 339 336 338 332 324 327 329 326 326 328 328 325 322 317 311 306 302 298 295 294 294 296 293 288 283 280 279 281 283 285 290 295 293 287 277 268 260 255 256 258 261 267 265 254 240 225 213 209 207 204 203 205 209 216 222 225 227 225 219 214 212
203 225 227 185 139 205 283 319 357 4 25 56 50 37 36 28 7 1 4 3 2 5 10 13 10 351 331 334 334 327 321 323 322 320 320 321 319 316 315 313 310 306 303 302 300 297 297 298 294 288 283 280 280 281 282 283 285 289 295 300 295 282 268 257 252 250 253 259 260 249 231 217 208 203 198 195 196 198 202 208 211 211 214 217 218 219 216
202 201 184 154 123 122 296 329 14 22 37 57 52 31 25 12 9 23 33 25 13 4 356 360 355 339 328 328 325 318 316 317 316 315 313 313 311 308 306 304 303 303 302 301 301 301 301 299 296 293 291 286 282 280 279 279 280 280 282 286 290 287 281 268 255 249 248 250 250 237 216 205 202 198 189 178 174 178 186 193 196 200 206 211 211 211 212
146 169 168 135 112 113 278 8 54 44 42 49 45 22 21 25 33 41 42 23 10 2 346 338 336 330 325 320 315 311 311 311 311 311 310 308 307 305 303 303 301 300 300 299 298 297 296 294 293 292 289 286 283 280 277 275 275 275 274 273 273 275 276 274 264 252 246 241 235 223 210 201 196 193 187 180 173 166 167 175 182 187 194 203 203 197 196
131 141 108 71 64 54 29 43 48 34 30 34 33 26 32 39 43 41 31 14 2 353 338 326 325 327 324 317 310 307 304 305 308 310 307 306 305 303 301 301 299 297 297 296 296 295 294 293 292 290 286 284 282 280 278 275 273 271 268 266 265 265 267 268 265 261 259 246 228 218 211 205 198 194 192 190 183 171 160 153 151 155 163 173 181 182 178
101 111 96 68 25 12 53 79 88 40 27 32 37 40 44 46 41 23 8 356 345 339 335 329 325 324 322 317 311 307 305 306 311 311 307 304 304 302 300 299 298 297 296 295 295 296 296 295 293 290 287 286 284 281 278 274 270 266 262 259 258 257 258 260 259 259 262 256 233 217 210 205 200 197 195 191 184 176 166 155 147 143 145 151 159 163 164
46 62 103 121 166 173 118 109 103 68 36 33 45 54 50 42 20 350 336 330 328 329 332 333 329 324 323 324 322 319 318 318 316 313 309 308 307 307 308 309 305 299 294 292 292 294 295 295 294 293 292 292 290 286 281 274 267 262 258 253 249 248 248 251 253 250 250 248 235 220 211 204 200 196 192 185 176 167 160 153 146 141 140 144 149 152 155
49 67 97 121 142 136 113 91 83 65 35 28 51 63 52 5 324 314 305 312 322 323 328 336 336 330 328 331 331 328 327 324 320 318 319 323 327 330 335 339 338 332 324 316 310 307 305 303 299 297 299 302 300 291 283 274 264 257 253 247 243 240 238 239 240 238 235 233 228 219 210 200 192 186 180 172 163 155 150 146 143 141 141 143 145 146 149
73 98 109 110 114 114 106 91 93 94 40 7 13 18 315 279 284 284 289 308 319 318 326 337 339 335 334 336 336 336 334 332 332 335 339 347 353 356 357 0 5 7 359 348 340 336 331 322 314 311 314 318 314 301 286 273 261 253 248 242 237 235 233 231 228 227 224 217 210 205 197 187 180 173 165 158 154 150 145 143 143 142 142 143 144 146 148
87 92 106 108 107 113 120 123 122 134 269 326 327 309 289 282 286 287 292 307 313 313 321 332 338 342 342 343 347 352 353 350 351 356 1 7 8 6 3 1 357 348 341 342 348 352 349 342 337 337 338 337 329 312 292 272 256 246 240 235 229 227 229 226 220 217 212 196 185 181 177 170 166 161 156 154 152 147 142 141 143 144 144 146 149 152 155
91 80 78 92 116 126 138 147 149 190 251 277 295 285 274 268 274 281 286 298 310 314 314 319 333 347 351 353 0 6 6 5 8 12 14 14 12 7 2 357 353 349 352 358 3 4 1 357 355 354 354 355 355 349 321 276 251 235 228 223 216 213 217 214 204 199 195 181 171 169 165 160 157 156 154 151 148 144 142 145 148 149 151 154 157 160 161
116 102 83 164 161 146 159 185 191 204 232 245 247 257 267 268 268 276 285 293 308 316 313 311 329 351 359 2 8 14 15 16 19 18 15 12 10 7 2 358 359 7 14 18 20 18 13 6 2 1 2 6 13 22 28 13 231 210 204 201 197 198 203 199 187 181 175 167 163 163 159 152 149 148 146 144 144 145 148 152 155 156 157 159 161 164 165
157 171 186 193 180 162 175 201 216 218 233 254 258 262 271 273 272 284 298 293 293 309 318 319 331 355 7 10 13 17 20 21 20 15 10 6 6 6 5 7 17 28 30 31 30 27 21 14 12 15 20 23 27 36 49 65 91 128 154 165 168 171 174 172 167 161 156 152 152 152 148 143 142 142 143 145 150 154 155 156 157 157 156 157 160 163 164
163 173 187 190 188 183 179 186 207 223 226 247 264 270 277 278 276 286 297 285 277 302 329 338 340 353 10 16 18 20 19 17 15 12 8 7 6 4 7 20 33 36 36 34 31 28 25 23 25 31 38 43 45 48 56 68 80 92 104 113 119 124 130 137 140 139 138 138 138 138 138 138 140 143 147 151 155 156 156 155 155 154 154 156 159 162 163
162 172 187 188 187 186 182 187 221 240 238 247 260 269 281 289 291 286 276 269 279 310 330 340 343 350 13 23 22 21 20 18 14 10 8 10 9 8 17 31 35 32 29 27 26 26 29 32 37 43 49 53 56 58 61 68 75 82 89 95 100 105 109 112 116 119 123 126 128 131 134 138 141 145 149 151 151 151 150 148 149 153 157 162 166 167 169
171 179 185 185 186 188 192 208 235 249 258 272 277 274 282 294 297 255 211 226 286 337 343 343 342 345 16 36 33 32 32 27 20 14 13 14 14 18 29 35 33 28 22 16 15 21 30 39 47 54 57 58 61 64 67 72 76 79 83 86 90 94 98 102 105 109 113 118 123 127 132 136 141 146 149 149 146 144 142 144 150 157 161 164 167 166 164
182 190 192 193 194 196 206 227 244 253 266 280 289 299 317 319 176 159 165 171 56 33 34 33 24 24 57 69 51 43 41 38 31 26 23 20 21 28 34 34 28 21 14 10 13 23 35 47 58 63 64 64 66 69 72 75 78 80 82 85 88 91 94 96 99 103 107 113 119 125 132 139 145 148 150 149 147 144 144 146 148 147 146 147 151 152 152
172 179 183 188 196 205 222 238 247 254 265 271 273 26 35 49 126 152 162 152 94 64 58 60 57 59 83 97 72 51 47 47 43 37 32 29 31 36 39 36 31 27 24 25 31 39 46 55 64 69 69 71 75 77 79 81 83 84 86 88 90 93 96 98 100 104 109 115 120 124 128 132 135 136 138 141 142 142 141 139 137 135 135 135 136 140 143
164 172 180 191 205 220 239 252 259 267 272 267 240 130 68 79 110 127 144 156 129 80 68 72 71 65 77 99 92 68 58 56 53 48 44 40 38 40 40 35 33 34 39 44 48 51 54 61 67 70 72 76 81 84 87 89 91 92 93 95 96 99 101 104 105 107 110 113 113 113 114 116 118 121 124 127 129 130 131 131 129 129 130 130 131 135 139
182 186 194 203 213 227 244 254 263 275 278 260 210 167 124 111 111 102 102 134 149 113 82 80 83 78 82 100 104 86 70 64 60 57 54 48 43 41 37 31 31 38 47 51 54 58 61 64 67 70 74 79 85 88 91 94 95 96 98 100 102 104 106 107 107 107 108 109 108 107 108 110 112 113 116 118 119 121 123 124 124 125 125 126 128 131 133
194 192 197 208 220 233 243 248 258 273 272 239 197 183 173 148 141 126 106 106 132 137 109 94 95 95 96 105 111 100 82 72 67 63 61 56 50 46 39 34 39 48 55 56 58 61 64 65 68 72 76 81 86 91 93 95 95 96 98 100 103 105 107 107 106 106 107 108 107 107 109 110 110 110 111 113 113 115 117 119 119 120 122 123 124 125 128
203 193 195 208 222 235 243 250 259 264 247 209 189 193 198 174 158 154 138 114 108 121 124 119 114 106 99 103 109 106 98 92 83 75 72 67 61 56 51 48 50 57 61 60 59 60 60 62 68 74 80 85 88 91 93 94 94 95 96 97 99 102 103 103 103 104 104 104 104 104 106 107 107 108 109 109 109 112 115 116 117 119 121 122 123 123 124
208 198 199 209 223 236 243 248 253 248 219 196 192 202 199 184 174 170 157 137 119 112 117 128 133 122 105 100 103 104 106 110 103 92 84 76 66 60 58 57 58 61 63 62 61 61 58 58 62 71 80 88 91 92 93 93 94 94 95 95 96 98 99 99 100 101 100 100 101 102 103 104 104 105 106 107 108 110 111 112 114 117 120 122 123 124 124
210 207 207 212 223 236 241 245 255 250 217 197 195 200 198 191 187 182 169 153 141 132 119 124 142 143 124 107 102 100 99 100 100 95 90 83 72 64 62 61 62 64 65 64 63 62 60 59 62 67 74 83 89 92 93 93 93 94 96 96 96 96 96 96 97 98 98 99 99 99 100 101 102 102 103 103 103 102 104 107 110 113 116 118 121 123 125
211 212 212 215 224 234 239 247 267 264 222 199 194 201 204 198 190 184 178 168 157 150 138 129 139 151 146 130 118 111 103 96 90 86 85 86 86 81 72 67 66 68 69 69 68 65 62 62 66 71 75 81 86 89 91 93 92 92 93 94 95 95 95 96 96 96 96 96 97 98 100 102 101 99 98 96 94 93 93 95 100 106 111 115 117 120 123
209 210 213 218 225 233 238 248 264 255 212 197 198 204 205 201 194 188 185 181 172 161 150 139 137 148 159 158 145 130 119 112 104 94 87 91 96 92 81 76 77 79 76 74 74 71 67 65 70 76 81 85 88 89 90 91 92 92 92 92 93 94 94 94 94 94 94 93 94 95 98 101 103 104 104 102 100 99 98 95 95 101 108 112 113 113 117
207 207 212 219 226 231 236 242 247 236 215 210 211 208 203 200 197 191 185 185 183 173 163 156 148 148 160 172 170 155 134 125 123 121 119 115 108 98 87 85 89 91 86 81 79 78 74 72 74 78 82 85 89 92 93 93 92 92 93 93 93 95 96 97 98 99 99 98 96 95 96 99 103 109 113 115 113 111 108 103 101 101 104 107 109 112 116
212 212 213 218 224 229 230 231 232 234 235 233 227 216 205 199 196 194 192 194 192 184 174 170 165 154 150 158 162 156 142 134 140 139 135 130 121 107 94 90 92 95 94 90 87 84 81 79 78 79 81 83 86 89 91 92 93 95 96 97 98 98 100 101 102 102 102 102 101 100 100 100 101 103 107 112 114 114 111 107 105 104 105 105 104 105 106
213 212 211 213 220 225 226 225 227 233 240 245 239 222 206 197 196 198 200 201 200 195 188 184 181 174 160 150 150 146 133 122 127 132 132 128 123 118 108 98 93 94 97 99 97 93 89 85 83 81 82 83 84 87 90 92 93 94 98 102 104 104 104 104 104 102 103 106 106 106 107 107 105 99 95 95 100 107 112 115 115 113 108 102 98 96 91
209 209 212 216 222 227 229 230 231 233 235 241 242 227 207 199 201 205 205 204 202 198 192 189 190 188 180 168 162 161 152 136 131 137 139 136 132 131 128 115 99 91 94 102 106 104 99 93 89 86 85 84 84 86 90 93 92 91 92 96 101 104 105 104 103 103 104 107 107 107 107 107 104 97 90 87 89 95 101 105 106 102 96 93 93 94 89
225 222 222 224 226 229 231 234 236 236 235 238 241 230 212 205 205 207 206 205 206 203 198 196 197 197 194 188 182 179 175 165 151 148 150 150 150 149 146 135 116 99 93 98 107 113 112 107 100 94 91 89 88 88 90 94 94 91 88 89 95 103 107 107 105 105 107 110 110 108 105 102 97 91 86 84 82 82 83 86 88 88 87 89 90 92 92